Location: Isola Pescaroli
(45.0500°N, 10.1667°E)
Time: 23:45:01
(UTC+00:00)

SL-4 R/B - Pass Details

Date: 17 June 2021
Orbit: 428 x 662 km, 51.6° (Epoch: 29 July)

Event Time Altitude Azimuth Distance (km) Brightness Sun altitude
Rises 01:41:27 0° 284° (WNW) 2,567 5.2 -14.4°
Reaches altitude 10° 01:43:54 10° 296° (WNW) 1,645 4.4 -14.1°
Maximum altitude 01:47:07 28° 357° (N) 900 3.7 -13.8°
Drops below altitude 10° 01:50:12 10° 58° (ENE) 1,565 5.5 -13.5°
Sets 01:52:28 0° 71° (ENE) 2,414 6.3 -13.3°
